Retour au catalogue

STARLINK-30447

ActifCommunicationsVLEO
NORAD 57874·PAYLOAD·🇺🇸 United States

Lancé Sep 16, 2023 depuis Cape Canaveral Space Force Station

Loading…

Prochains Passages (prochaines 24 heures)

TLE

FraisSource: CelesTrak SupGP

Époque: Sep 15, 2026, 01:44 UTC

1 57874C 23144L   26258.07270833  .00005865  00000+0  21246-3 0  2587
2 57874  42.9994 269.9225 0001124 284.5769 184.1520 15.27573532    16

Suivez STARLINK-30447 en temps réel avec AllMySat

Download on the App Store